Regional Weather Roundup
Issued by NWS

Home | Current Version | Previous Version | Graphics & Text | Print | Product List | Glossary On
Versions: 1 2 3 4 5 6 7 8 9 10 11 12 13 14 15 16 17 18 19 20 21 22 23 24 25 26 27 28 29 30 31 32 33 34 35 36 37 38 39 40 41 42 43 44 45 46 47 48 49 50
000
ASUS43 KBIS 251710
RWRND

NORTH DAKOTA REGIONAL WEATHER ROUNDUP
NATIONAL WEATHER SERVICE BISMARCK ND
1100 AM CST SUN JAN 25 2015

NOTE: "FAIR" INDICATES FEW OR NO CLOUDS BELOW 12,000 FEET WITH NO
SIGNIFICANT WEATHER AND/OR OBSTRUCTIONS TO VISIBILITY.


NDZ001>003-009>011-017-251800-
NORTHWEST NORTH DAKOTA

CITY           SKY/WX    TMP DP  RH WIND       PRES   REMARKS
WILLISTON      CLOUDY    35  29  78 SW8       29.98S
MINOT          CLOUDY    25  22  88 S5        29.98R WCI  19
MINOT AFB      CLOUDY    25  23  93 W8        29.98S WCI  16
$$

NDZ018>021-031>035-040>046-251800-
SOUTHWEST NORTH DAKOTA

CITY           SKY/WX    TMP DP  RH WIND       PRES   REMARKS
BISMARCK       CLOUDY    36  31  82 NW3       30.01S
DICKINSON      PTSUNNY   34  28  79 W13       29.97R
GARRISON         N/A     32  30  92 W8        29.97S
HETTINGER ARPT MOSUNNY   35  27  72 NW7       30.01S
$$

NDZ004>008-012>016-024-026-027-054-251800-
NORTHEAST NORTH DAKOTA

CITY           SKY/WX    TMP DP  RH WIND       PRES   REMARKS
GRAND FORKS    MOSUNNY   19  10  68 CALM      30.04F
GRND FRKS AFB  SUNNY     18  11  72 E3        30.04F
DEVILS LAKE    CLOUDY    19  12  73 SW7       30.00S WCI  10
$$

NDZ022-023-025-028>030-036>039-047>053-251800-
SOUTHEAST NORTH DAKOTA

CITY           SKY/WX    TMP DP  RH WIND       PRES   REMARKS
FARGO          SUNNY     22  14  71 N7        30.05R WCI  13
JAMESTOWN      CLOUDY    21  17  84 CALM      30.02R
$$



USA.gov is the U.S. government's official web portal to all federal, state and local government web resources and services.